Regional Weather Roundup
Issued by NWS

Home | Current Version | Previous Version | Text Only | Print | Product List | Glossary Off
Versions: 1 2 3 4 5 6 7 8 9 10 11 12 13 14 15 16 17 18 19 20 21 22 23 24 25 26 27 28 29 30 31 32 33 34 35 36 37 38 39 40 41 42 43 44 45 46 47 48 49 50

000
ASUS45 KCYS 170910
RWRWY

WYOMING REGIONAL WEATHER ROUNDUP
NATIONAL WEATHER SERVICE CHEYENNE WY
300 AM MDT FRI APR 17 2015

NOTE:  "FAIR" INDICATES FEW OR NO CLOUDS BELOW 12,000 FEET
WITH NO SIGNIFICANT WEATHER AND/OR OBSTRUCTIONS TO VISIBILITY.

WYZ001-171000-
YELLOWSTONE NATIONAL PARK

CITY           SKY/WX    TMP DP  RH WIND       PRES   REMARKS
LK YELLOWSTONE   N/A     21  18  88 CALM      30.25F
W YELLOWSTONE  NOT AVBL

$$
WYZ002>013-054>058-071-098>099-171000-
NORTHERN WYOMING

CITY           SKY/WX    TMP DP  RH WIND       PRES   REMARKS
JACKSON        FAIR      30  25  80 N12       30.20F WCI  21
CODY           FAIR      36  28  75 SW6       30.21S WCI  31
GREYBULL       FAIR      32  26  78 SE5       30.25R WCI  27
WORLAND        FAIR      30  27  88 CALM      30.23F
SHERIDAN       FAIR      30  25  81 SW5       30.21F WCI  25
BUFFALO        FAIR      40  26  57 SW5       30.22F
GILLETTE       FAIR      28  24  85 S5        30.21F WCI  23
HULETT         FAIR      32  28  86 CALM      30.22F
NEWCASTLE      FAIR      37  32  81 N8        30.21S WCI  31

$$
WYZ014>020-022>026-101>103-171000-
CENTRAL WYOMING

CITY           SKY/WX    TMP DP  RH WIND       PRES   REMARKS
BIG PINEY      FAIR      25  22  88 NW5       30.21F WCI  19
PINEDALE       FAIR      23  23 100 W6        30.21F WCI  16
DUBOIS         FAIR      27  21  80 NW3       30.24S
LANDER         CLOUDY    35  31  85 CALM      30.23F
RIVERTON       CLOUDY    37  33  85 CALM      30.25F
CASPER         FAIR      35  32  88 N8        30.20F WCI  29
DOUGLAS        CLOUDY    39  36  89 NW9       30.20F WCI  33

$$
WYZ021-027>030-104>119-171000-
SOUTHERN WYOMING

CITY           SKY/WX    TMP DP  RH WIND       PRES   REMARKS
EVANSTON       CLOUDY    30  26  85 N7        30.19F WCI  23
FORT BRIDGER   CLOUDY    32  32 100 CALM      30.22F FOG
ROCK SPRINGS   CLOUDY    33  27  78 NE22G28   30.18F WCI  21
DIXON          CLOUDY    38  31  76 N17       30.09F WCI  29
RAWLINS        CLOUDY    34  30  85 N16       30.15F WCI  24
SARATOGA       FLURRIES  34  32  93 MISG      30.12F
LARAMIE        LGT SNOW  31  30  96 NE18      30.10F FOG     WCI  19
CHEYENNE       LGT SNOW  34  32  92 N18       30.11F FOG     WCI  23
TORRINGTON     LGT RAIN  44  37  76 SE6       30.15R
PINE BLUFFS    RAIN      39  37  93 NE15      30.12S WCI  31

$$


USA.gov is the U.S. government's official web portal to all federal, state and local government web resources and services.